Probability
58 58 65 71 74 74 61 55 55 52 35 19 16 19 19 6 6 6 23 81 87 94 97 87 77 81 81 81 77 77 58 48 48 42 35 26 26 23 23 19 16 13 16
58 48 55 55 55 45 42 45 52 39 23 19 19 16 13 6 0 6 13 61 81 87 94 94 84 81 74 68 61 58 55 55 45 35 32 29 26 16 19 19 16 13 10
55 55 55 52 42 32 35 32 29 13 19 13 10 10 6 6 3 6 10 19 35 71 74 81 74 74 71 61 52 52 48 42 42 35 29 23 23 23 10 10 6 6 10
55 52 45 42 35 39 29 26 23 16 16 6 6 3 0 6 3 3 3 3 10 26 58 77 71 65 61 55 55 52 39 39 35 32 29 26 26 19 13 6 3 3 3
45 42 42 42 39 45 32 32 26 10 3 6 6 0 0 0 3 3 3 3 3 0 3 23 48 52 52 52 48 42 42 35 29 23 23 23 23 13 6 3 3 3 3
45 39 35 35 29 32 23 16 10 6 6 6 6 0 0 0 0 3 3 0 0 0 0 3 16 26 42 35 35 35 35 29 26 23 19 16 16 13 3 3 3 3 3
35 35 32 35 29 26 19 16 10 6 6 0 0 0 0 0 0 0 0 0 0 0 0 0 3 3 6 23 13 32 19 19 13 10 13 10 6 6 3 3 3 3 3
19 23 23 26 19 19 23 19 10 6 6 0 0 0 0 0 0 0 0 0 0 0 0 0 0 0 3 3 3 16 19 16 13 6 6 3 3 3 3 3 3 3 3
16 16 16 19 19 23 23 23 13 6 3 0 0 0 0 0 0 0 0 0 0 0 0 0 0 0 0 0 0 3 6 3 3 6 3 3 0 3 3 3 3 3 3
13 13 13 13 13 13 13 16 6 6 6 3 0 0 0 0 0 0 0 0 0 0 0 0 0 0 0 0 0 0 3 3 3 0 0 3 3 3 3 3 3 3 3
13 13 13 13 13 10 13 13 10 3 3 6 0 0 0 0 0 0 0 0 0 0 0 0 0 0 0 0 0 0 0 0 0 0 0 0 0 0 0 0 0 0 0
6 6 10 10 10 6 6 6 10 3 3 0 0 0 0 0 0 0 0 0 0 0 0 0 0 0 0 0 0 0 0 0 0 0 0 0 0 0 0 0 0 0 0
3 3 0 0 3 3 3 6 13 10 0 0 0 0 0 0 0 0 0 0 0 0 0 0 0 0 0 0 0 0 0 0 0 0 0 0 0 0 0 0 0 0 0
0 0 0 0 0 0 3 6 6 6 3 0 0 0 0 0 0 0 0 0 0 0 0 0 0 0 0 0 0 0 0 0 0 0 0 0 0 0 0 0 0 0 0
0 0 0 0 0 0 0 0 0 0 0 3 0 0 0 0 0 0 0 0 0 0 0 0 0 0 0 0 0 0 0 0 0 0 0 0 0 0 0 0 0 0 0
0 0 0 0 0 0 0 0 0 0 0 0 0 0 0 0 0 0 0 0 0 0 0 0 0 0 0 0 0 0 0 0 0 0 0 0 0 0 0 0 0 0 0
0 0 0 0 0 0 0 0 0 0 0 0 0 0 0 0 0 0 0 0 0 0 0 0 0 0 0 0 0 0 0 0 0 0 0 0 0 0 0 0 0 0 0
0 0 0 0 0 0 0 0 0 0 0 0 0 0 0 0 0 0 0 0 0 0 0 0 0 0 0 0 0 0 0 0 0 0 0 0 0 0 0 0 0 0 0
0 0 0 0 0 0 0 0 0 0 0 0 0 0 0 0 0 0 0 0 0 0 0 0 0 0 0 0 0 0 0 0 0 0 0 0 0 0 0 0 0 0 0
0 0 0 0 0 0 0 0 0 0 0 0 0 0 0 0 0 0 0 0 0 0 0 0 0 0 0 0 0 0 0 0 0 0 0 0 0 0 0 0 0 0 0
0 0 0 0 0 0 0 0 0 0 0 0 0 0 0 0 0 0 0 0 0 0 0 0 0 0 0 0 0 0 0 0 0 0 0 0 0 0 0 0 0 0 0
0 0 0 0 0 0 0 0 0 0 0 0 0 0 0 0 0 0 0 0 0 0 0 0 0 0 0 0 0 0 0 0 0 0 0 0 0 0 0 0 0 0 0
0 0 0 0 0 0 0 0 0 0 0 0 0 0 0 0 0 0 0 0 0 0 0 0 0 0 0 0 0 0 0 0 0 0 0 0 0 0 0 0 0 0 0
0 0 0 0 0 0 0 0 0 0 0 0 0 0 0 0 0 0 0 0 0 0 0 0 0 0 0 0 0 0 0 0 0 0 0 0 0 0 0 0 0 0 0
0 0 0 0 0 0 0 0 0 0 0 0 0 0 0 0 0 0 0 0 0 0 0 0 0 0 0 0 0 0 0 0 0 0 0 0 0 0 0 0 0 0 0
0 0 0 0 0 0 0 0 0 0 0 0 0 0 0 0 0 0 0 0 0 0 0 0 0 0 0 0 0 0 0 0 0 0 0 0 0 0 0 0 0 0 0
Height
5874 5874 5875 5875 5875 5875 5875 5876 5876 5876 5876 5876 5877 5877 5878 5878 5879 5879 5879 5880 5880 5881 5882 5882 5883 5883 5883 5883 5883 5884 5884 5884 5884 5884 5884 5884 5883 5883 5883 5883 5882 5882 5881
5869 5869 5870 5870 5871 5870 5871 5871 5871 5872 5872 5872 5872 5872 5873 5873 5874 5874 5875 5875 5876 5877 5878 5878 5879 5880 5880 5880 5880 5881 5881 5881 5881 5881 5881 5881 5880 5880 5880 5879 5879 5878 5878
5864 5864 5865 5865 5865 5865 5866 5866 5866 5866 5866 5866 5867 5867 5868 5869 5869 5869 5870 5870 5871 5872 5873 5874 5875 5876 5876 5876 5876 5877 5877 5877 5877 5877 5877 5877 5877 5876 5876 5876 5875 5874 5874
5858 5858 5859 5859 5860 5860 5860 5861 5860 5860 5861 5861 5861 5862 5863 5863 5864 5864 5864 5865 5866 5867 5868 5869 5870 5871 5871 5872 5872 5872 5873 5873 5873 5873 5873 5873 5873 5872 5872 5871 5871 5870 5869
5852 5852 5853 5853 5853 5854 5854 5855 5854 5854 5855 5855 5855 5856 5857 5857 5858 5859 5859 5860 5861 5862 5863 5864 5865 5865 5866 5867 5867 5868 5868 5868 5869 5868 5868 5868 5868 5867 5867 5867 5866 5865 5864
5846 5846 5847 5847 5847 5848 5848 5848 5848 5848 5849 5849 5849 5849 5850 5851 5852 5853 5853 5854 5855 5856 5858 5858 5859 5860 5860 5861 5862 5862 5863 5863 5863 5863 5863 5863 5863 5862 5862 5861 5860 5860 5859
5839 5840 5840 5840 5840 5841 5841 5841 5841 5841 5842 5842 5843 5843 5844 5844 5846 5847 5848 5849 5850 5851 5852 5853 5853 5854 5855 5855 5856 5857 5857 5857 5857 5857 5857 5857 5857 5857 5856 5855 5854 5854 5852
5832 5833 5833 5833 5834 5834 5834 5834 5834 5834 5835 5835 5836 5836 5837 5838 5839 5840 5841 5842 5843 5844 5845 5847 5847 5848 5849 5850 5850 5851 5851 5851 5851 5851 5851 5851 5851 5850 5850 5849 5848 5847 5845
5825 5825 5825 5826 5826 5827 5827 5827 5827 5828 5828 5828 5829 5830 5831 5832 5832 5833 5834 5836 5837 5838 5840 5840 5841 5842 5843 5844 5844 5845 5845 5845 5845 5845 5845 5844 5844 5843 5843 5842 5841 5839 5838
5817 5817 5817 5818 5818 5819 5819 5819 5820 5820 5821 5821 5822 5823 5824 5825 5826 5827 5828 5829 5830 5831 5833 5834 5835 5836 5836 5837 5837 5838 5838 5838 5838 5838 5838 5837 5836 5836 5835 5834 5833 5831 5830
5809 5810 5810 5810 5810 5811 5811 5811 5812 5812 5813 5814 5815 5815 5816 5818 5819 5821 5822 5822 5823 5824 5825 5827 5827 5828 5829 5830 5830 5831 5831 5831 5831 5831 5830 5829 5829 5828 5827 5826 5824 5823 5821
5802 5802 5802 5802 5803 5803 5803 5803 5803 5804 5805 5806 5807 5808 5809 5810 5812 5813 5814 5815 5816 5817 5818 5819 5820 5821 5822 5822 5823 5823 5823 5823 5823 5823 5822 5821 5820 5820 5818 5817 5816 5814 5812
5794 5794 5794 5794 5795 5795 5795 5795 5795 5796 5797 5798 5799 5800 5801 5803 5804 5805 5806 5807 5808 5809 5810 5812 5812 5814 5814 5815 5815 5815 5815 5815 5815 5815 5814 5813 5812 5811 5810 5808 5807 5805 5803
5787 5787 5787 5787 5787 5787 5787 5787 5787 5788 5789 5790 5791 5793 5794 5795 5796 5798 5799 5800 5800 5802 5803 5804 5805 5806 5807 5807 5808 5808 5807 5807 5807 5806 5805 5804 5803 5802 5801 5799 5798 5796 5794
5780 5780 5780 5780 5780 5780 5780 5780 5780 5780 5781 5782 5784 5785 5786 5787 5788 5790 5791 5792 5794 5794 5795 5796 5798 5799 5799 5799 5800 5799 5799 5799 5798 5798 5797 5796 5795 5793 5792 5790 5788 5786 5784
5774 5774 5773 5773 5773 5772 5772 5772 5773 5773 5774 5775 5776 5778 5779 5780 5781 5782 5783 5784 5786 5787 5787 5789 5790 5791 5791 5792 5792 5791 5791 5791 5790 5789 5789 5788 5786 5784 5783 5781 5779 5777 5775
5768 5767 5767 5766 5765 5765 5766 5766 5766 5767 5768 5768 5769 5770 5771 5772 5773 5774 5775 5776 5778 5779 5780 5781 5781 5783 5783 5784 5784 5784 5783 5783 5782 5781 5780 5779 5778 5776 5774 5773 5771 5769 5767
5761 5760 5760 5759 5759 5759 5759 5759 5760 5760 5761 5761 5762 5763 5763 5764 5765 5766 5767 5769 5770 5772 5773 5774 5774 5775 5776 5776 5776 5776 5776 5775 5775 5774 5772 5771 5770 5768 5767 5765 5763 5761 5759
5754 5754 5753 5753 5752 5752 5752 5752 5753 5753 5753 5754 5755 5755 5756 5757 5758 5759 5760 5762 5763 5764 5766 5767 5768 5769 5769 5770 5770 5770 5769 5768 5767 5766 5765 5764 5763 5761 5759 5758 5756 5753 5751
5747 5747 5746 5746 5745 5745 5745 5745 5746 5746 5746 5747 5748 5748 5749 5750 5751 5752 5753 5755 5756 5757 5759 5760 5761 5762 5763 5763 5763 5763 5762 5762 5761 5760 5759 5757 5756 5754 5753 5751 5749 5747 5744
5740 5739 5739 5739 5738 5738 5738 5739 5739 5739 5740 5740 5741 5741 5742 5743 5744 5746 5747 5749 5750 5751 5753 5754 5755 5756 5757 5757 5757 5756 5756 5755 5755 5754 5752 5751 5750 5748 5746 5744 5742 5740 5738
5732 5732 5731 5731 5731 5731 5731 5731 5732 5733 5733 5734 5734 5735 5736 5737 5738 5740 5741 5743 5744 5746 5748 5749 5749 5750 5750 5751 5751 5750 5750 5750 5749 5748 5746 5745 5743 5742 5740 5738 5736 5734 5731
5725 5725 5724 5724 5724 5724 5725 5725 5726 5727 5727 5728 5729 5730 5730 5731 5733 5734 5736 5737 5739 5741 5743 5744 5744 5745 5745 5745 5745 5745 5745 5744 5743 5742 5741 5739 5738 5736 5735 5733 5730 5728 5725
5718 5718 5718 5718 5718 5718 5719 5720 5720 5721 5723 5723 5724 5725 5726 5727 5728 5730 5731 5733 5735 5736 5738 5738 5739 5740 5740 5740 5740 5740 5740 5739 5738 5737 5736 5735 5733 5731 5729 5727 5725 5722 5720
5713 5712 5712 5712 5713 5713 5714 5715 5716 5717 5718 5719 5720 5721 5722 5723 5724 5726 5728 5729 5731 5732 5733 5734 5734 5735 5735 5736 5736 5736 5735 5735 5734 5733 5732 5730 5728 5727 5724 5722 5720 5718 5716
5708 5708 5708 5708 5708 5709 5709 5710 5711 5713 5714 5715 5717 5718 5719 5720 5721 5723 5724 5726 5727 5728 5729 5730 5731 5731 5731 5732 5732 5731 5731 5730 5729 5729 5728 5726 5724 5723 5721 5719 5716 5714 5712
Wind_Speed
20 20 20 20 20 20 20 19 19 19 20 20 21 21 20 19 19 19 19 19 17 17 16 16 16 16 15 14 14 14 14 13 13 13 13 13 13 14 14 14 14 14 15
21 20 20 21 21 21 21 21 21 21 21 21 22 22 22 21 21 21 20 19 19 19 18 18 18 17 17 16 16 16 16 16 16 16 15 15 15 16 16 16 16 16 17
21 22 22 22 22 22 22 23 22 22 22 22 23 22 22 23 23 22 22 21 21 20 20 20 20 20 19 19 18 18 18 18 18 18 18 18 18 18 18 18 18 18 19
22 23 23 23 23 24 24 23 24 24 23 24 24 24 23 23 24 23 23 23 22 21 21 21 21 21 21 21 21 20 20 20 20 20 20 21 20 20 21 21 21 21 22
23 23 24 24 24 25 25 25 25 25 25 24 25 25 25 25 25 24 25 24 24 24 24 24 23 23 23 23 23 23 23 23 23 23 23 23 23 23 23 23 24 24 24
24 25 25 25 26 26 26 26 26 26 26 26 26 26 26 26 26 26 26 26 25 25 25 25 24 24 25 25 25 25 24 25 25 25 25 25 25 24 25 26 26 26 27
26 26 26 27 27 27 28 28 27 27 27 27 26 27 27 27 28 27 27 27 27 26 26 25 25 25 26 26 25 25 25 26 26 26 26 26 26 26 26 27 27 28 29
27 28 27 28 28 28 28 28 28 28 27 27 27 26 27 27 28 29 28 27 27 26 26 26 26 26 27 27 26 26 27 27 27 28 27 27 28 29 29 29 30 30 31
28 28 28 28 28 29 29 29 29 28 28 27 28 27 27 27 28 28 28 27 28 28 28 28 27 27 28 27 27 27 27 28 28 29 29 29 30 30 31 31 32 32 33
29 29 29 29 29 29 29 30 30 29 29 29 29 28 28 27 27 27 28 28 28 28 28 28 28 29 28 28 28 28 28 29 29 29 30 31 32 33 33 33 33 34 34
28 28 29 29 29 28 29 29 30 30 30 30 29 29 28 28 27 28 28 28 28 28 28 28 29 30 31 31 30 29 29 30 30 31 32 33 33 34 34 34 35 35 35
27 27 28 28 29 29 29 29 30 30 30 29 29 30 29 29 29 29 29 30 29 29 29 29 30 30 31 32 32 31 31 31 32 33 34 34 34 35 35 34 35 36 36
25 26 27 27 28 28 28 28 29 29 29 29 29 30 30 30 30 29 30 30 30 30 30 29 29 30 30 30 31 31 31 31 32 33 34 34 34 35 35 35 36 37 38
24 25 25 26 26 27 27 28 27 27 28 28 28 29 30 30 30 30 30 30 30 30 30 29 28 28 29 29 31 31 31 32 33 34 35 34 35 35 35 36 37 38 39
23 23 24 24 25 25 25 26 25 25 26 26 26 27 28 29 30 31 30 30 30 30 29 29 29 29 29 30 31 31 32 33 33 33 33 34 35 35 35 35 36 36 37
22 22 22 23 22 22 23 23 23 23 24 25 26 27 27 28 28 29 29 29 29 29 29 29 29 29 29 31 31 31 31 31 31 32 33 33 33 34 33 33 34 34 34
22 22 22 22 22 21 21 21 22 23 23 24 24 25 26 27 27 27 28 28 28 28 28 28 28 28 28 29 29 29 28 28 29 30 30 30 30 29 30 30 31 31 31
22 22 21 22 22 22 21 21 21 22 22 23 23 24 24 26 26 26 27 27 26 26 26 27 26 26 25 25 26 26 26 26 27 27 27 27 27 28 28 29 29 29 29
22 22 22 22 22 22 22 21 22 22 22 22 22 22 23 24 24 25 25 25 24 24 25 25 24 24 24 24 25 26 26 26 26 26 25 26 26 27 28 28 28 28 29
23 23 22 22 23 22 22 22 22 22 22 22 22 23 23 23 23 23 22 22 23 23 23 23 22 22 22 23 23 23 23 23 23 24 25 25 26 26 27 27 27 27 28
24 24 23 23 22 22 22 22 21 21 20 20 20 20 21 21 20 20 20 20 21 21 20 20 20 20 21 21 22 21 21 21 22 23 24 24 24 24 24 25 26 26 27
23 23 23 23 22 22 21 21 20 20 19 18 18 17 17 17 18 19 19 19 19 19 19 19 19 19 20 19 19 20 20 21 22 22 21 21 22 22 22 23 24 25 26
21 21 21 21 21 20 20 19 19 18 18 17 16 16 16 15 16 16 17 17 18 18 19 19 18 18 18 17 18 19 19 19 19 19 18 19 19 20 21 22 23 24 23
19 19 19 18 18 18 17 17 16 16 15 14 14 14 14 13 14 15 15 16 16 16 17 17 17 17 17 16 16 16 16 17 17 17 17 17 18 19 20 21 21 21 20
16 16 16 15 15 16 16 15 14 14 13 12 12 12 12 12 13 14 14 14 14 14 14 14 14 14 14 14 14 14 14 14 14 14 15 16 16 17 18 19 18 18 17
13 13 13 13 13 13 13 13 12 11 11 10 9 9 9 8 9 11 11 11 11 11 11 11 12 12 12 12 11 11 11 12 12 13 13 14 15 15 15 15 15 15 14
Wind_Direction
259 262 264 267 267 264 264 264 265 265 265 264 262 261 260 259 256 256 256 255 254 255 256 256 256 257 258 257 258 260 262 266 268 271 271 273 274 272 273 274 272 274 275
258 261 262 263 265 265 266 269 268 267 267 266 263 261 260 259 257 256 256 253 255 255 255 256 255 256 258 259 259 260 263 266 268 269 271 273 275 273 273 274 273 274 276
256 259 261 262 264 267 267 270 269 267 266 265 263 262 261 260 256 256 254 254 253 253 254 255 255 256 258 259 260 260 263 266 268 269 270 271 272 273 274 274 274 275 277
258 260 262 264 265 267 268 268 267 266 266 266 265 264 264 261 256 256 254 253 254 255 256 256 257 256 258 259 260 261 263 265 267 269 270 271 272 273 275 275 276 277 279
261 262 261 263 265 266 266 267 266 265 265 266 265 263 263 261 256 256 256 254 254 254 256 255 256 257 258 259 260 262 263 266 267 269 270 271 272 273 274 274 276 277 279
262 262 262 263 264 265 266 265 264 265 265 266 266 264 262 260 256 257 257 257 255 256 257 258 258 260 260 258 259 261 265 266 267 269 271 272 274 275 275 276 277 277 278
263 264 264 264 264 265 265 264 263 265 265 265 264 263 262 260 257 258 257 257 257 256 255 256 258 260 261 260 260 261 264 266 267 268 269 271 273 276 277 278 278 279 280
264 265 266 265 265 266 266 264 262 264 266 265 263 262 261 261 261 259 256 257 257 256 256 257 257 258 261 261 261 263 265 265 269 268 268 271 274 276 277 278 278 280 280
265 265 266 265 265 265 265 263 261 262 264 264 264 263 260 260 260 258 257 257 257 256 255 256 257 259 261 262 263 265 266 266 269 269 270 273 274 275 276 278 279 279 281
265 266 266 265 266 265 264 262 261 261 261 262 263 261 259 259 258 257 258 259 257 255 255 255 257 259 260 261 263 264 266 266 268 269 271 274 276 276 277 279 280 280 281
267 266 266 266 267 266 266 264 262 261 262 261 262 261 259 257 257 258 258 259 259 260 258 258 260 260 258 260 264 265 265 265 267 270 272 274 276 276 277 279 280 280 280
267 267 266 266 267 267 267 266 263 261 260 259 259 259 259 258 257 257 259 258 260 261 260 262 263 261 260 261 262 264 266 267 269 272 273 274 275 276 278 279 279 280 280
268 268 267 266 267 267 267 265 263 261 259 257 256 257 258 258 258 258 259 259 259 260 262 263 261 260 261 262 263 266 268 268 271 274 274 275 275 276 277 278 278 280 280
269 269 269 268 268 267 266 264 263 260 258 256 255 255 257 257 258 259 261 260 259 260 261 262 263 260 260 262 264 266 267 268 271 272 273 274 274 275 276 278 279 280 281
272 271 271 270 268 266 265 265 261 259 258 257 255 254 255 256 257 258 260 259 259 259 259 259 260 261 260 261 262 264 267 269 270 271 273 274 273 275 277 280 280 280 281
274 274 272 272 270 268 266 265 261 260 260 258 256 254 255 255 256 256 257 257 258 260 260 260 260 261 260 261 263 264 268 271 271 272 273 274 275 276 276 279 280 280 280
274 274 274 272 270 268 266 265 264 262 261 260 258 258 257 254 254 254 254 255 257 258 258 260 262 261 263 261 262 264 267 269 271 272 273 275 275 276 277 280 280 281 281
274 274 274 273 270 268 267 266 265 264 261 259 257 255 255 254 253 253 254 255 256 255 255 257 259 260 260 261 263 266 266 269 273 275 276 277 276 277 279 279 280 281 281
275 274 273 272 271 268 266 265 264 263 260 258 257 257 256 256 255 254 254 254 252 252 252 254 255 256 260 263 263 264 266 271 274 275 276 277 277 278 278 277 278 280 281
273 272 273 273 271 269 267 265 263 262 260 259 259 257 256 255 253 253 253 251 249 249 250 250 252 257 259 261 262 264 268 271 273 271 272 274 275 277 277 278 279 281 284
272 271 272 271 269 268 267 265 262 260 258 258 258 256 255 254 251 250 249 247 246 246 247 250 253 257 259 259 263 265 267 269 271 272 273 274 276 277 278 281 283 285 286
272 272 271 271 270 267 264 263 260 259 258 259 258 255 253 251 247 245 246 244 243 243 245 248 251 255 257 259 261 264 266 269 271 272 274 275 277 279 282 284 286 288 289
272 271 270 269 268 265 262 260 258 258 257 255 254 251 249 249 244 243 242 241 240 243 246 249 251 254 257 260 262 265 267 269 272 274 277 279 281 283 285 287 289 291 293
272 271 269 267 264 260 257 256 253 252 251 252 252 251 249 245 240 236 235 238 240 241 244 248 251 255 260 262 263 266 267 271 274 277 280 282 285 288 290 292 294 295 296
272 270 267 264 260 257 254 249 244 245 247 247 248 247 244 241 237 233 235 238 239 243 246 248 252 257 259 262 264 268 271 273 274 278 282 286 290 294 296 297 299 299 299
272 269 266 262 258 255 250 242 240 240 236 235 235 232 233 230 225 223 229 234 238 243 246 251 256 257 257 260 262 266 271 275 281 285 289 292 296 299 301 302 303 303 303